[[{"header":{"parameterUnit":"m.s-1","parameterCategory":2,"la1":30.2991,"la2":30.254,"lo1":-89.0895,"lo2":-89.0444,"dy":0.0017,"dx":0.0017,"nx":28,"ny":28,"refTime":"2024-04-22T09:00:00:Z","depth":"0","parameterNumber":2,"parameterNumberName":"U-component_of_CURRENTS"},"data":[0,0,0,0,0,0,0,0,0,0,0,0,0,0,0,0,0,0,0,0,0,0,0,0,0,0,0,0,0,0,0,0,0,0,0,0,0,0,0,0,0,0,0,0,0,0,0,0,0,0,0,0,0,0,0,0,0,0,0.2235,0.2235,0,0.2262,0.2262,0.2262,0.2252,0.2252,0.2251,0.2251,0.2249,0.225,0.225,0,0,0,0,0,0,0,0,0,0,0,0,0,0.2168,0.2169,0.2235,0.2236,0.2236,0.2262,0.2262,0.2262,0.2252,0.2252,0.2251,0.2251,0.2249,0.225,0.225,0,0,0,0,0,0,0,0,0,0,0,0,0,0.2193,0.217,0.2235,0.2237,0.2238,0.2262,0.2262,0.2262,0.2252,0.2252,0.2251,0.2251,0.2249,0.225,0.225,0.226,0,0,0.2251,0.2251,0,0,0,0,0,0,0,0,0.2192,0.2195,0.2236,0.2237,0.2238,0.2256,0.2238,0.2261,0.2252,0.2243,0.2251,0.2251,0.2252,0.2252,0.2253,0.226,0.226,0.2251,0.2251,0.2251,0.2251,0,0,0,0,0,0,0,0.219,0.2194,0.2242,0.2237,0.2238,0.2235,0.2237,0.2242,0.2246,0.2244,0.2244,0.2253,0.2251,0.2253,0.2253,0.226,0.2251,0.2251,0.2251,0.2252,0.2327,0.2328,0,0,0,0,0,0,0.2195,0.2193,0.2241,0.2243,0.2217,0.2237,0.2239,0.2248,0.2247,0.2247,0.2253,0.2252,0.2253,0.2253,0.2253,0.2301,0.2251,0.2252,0.2252,0.2325,0.2327,0.2329,0,0,0,0,0,0,0.2193,0.2199,0.224,0.2221,0.2226,0.2239,0.2248,0.2249,0.2258,0.2255,0.2254,0.2263,0.2252,0.2252,0.2266,0.23,0.2252,0.2252,0.2323,0.2326,0.2328,0.2375,0,0,0,0,0,0,0.2191,0.2198,0.2205,0.2222,0.2228,0.2267,0.2249,0.225,0.2265,0.2265,0.2263,0.2262,0.2252,0.2265,0.2266,0.2299,0.2252,0.232,0.2324,0.2327,0.2371,0.2379,0.2386,0,0,0,0,0,0.2189,0.22,0.2205,0.2211,0.2237,0.2268,0.2271,0.2275,0.2267,0.2279,0.2274,0.2262,0.2288,0.2267,0.2267,0.2301,0.2319,0.2323,0.2327,0.2368,0.2377,0.2385,0,0,0,0,0,0,0.2171,0.2201,0.2206,0.2225,0.2252,0.2268,0.2278,0.2283,0.229,0.2284,0.2275,0.2274,0.2304,0.2297,0.2274,0.2336,0.2306,0.2311,0.2338,0.2346,0.2353,0.2323,0.2253,0,0,0,0,0,0.2173,0.219,0.222,0.2236,0.225,0.2266,0.2278,0.2286,0.2295,0.2297,0.2297,0.2303,0.2321,0.2327,0.2338,0.2363,0.2402,0.2391,0.2398,0.2404,0.2382,0.245,0.2461,0.2342,0.2342,0.2342,0,0,0.2171,0.219,0.2199,0.2235,0.225,0.2274,0.2272,0.2297,0.2313,0.2297,0.2313,0.2326,0.2334,0.2366,0.238,0.2363,0.248,0.2409,0.2414,0.2388,0.2455,0.2467,0.2477,0.2345,0.2345,0.2344,0,0,0.2176,0.2194,0.2211,0.2235,0.2269,0.2284,0.2296,0.2322,0.233,0.2354,0.2353,0.2376,0.24,0.241,0.2419,0.2472,0.2516,0.2496,0.2504,0.2572,0.2582,0.2591,0.2746,0.2768,0.2498,0.2499,0.2499,0,0.2172,0.2197,0.2222,0.2245,0.2263,0.2291,0.2312,0.2331,0.2357,0.2368,0.2365,0.2411,0.2416,0.2456,0.2474,0.2486,0.2563,0.2469,0.2581,0.2589,0.2597,0.2753,0.2777,0.2501,0.2501,0.2501,0.25,0,0.2194,0.2213,0.2226,0.2264,0.2287,0.2313,0.2346,0.2366,0.2381,0.2403,0.2446,0.2457,0.2489,0.2506,0.2499,0.2568,0.2624,0.2585,0.2554,0.2612,0.2775,0.2798,0.2505,0.2504,0.2503,0.2503,0,0,0.2189,0.2232,0.2237,0.2251,0.2298,0.2319,0.235,0.239,0.2423,0.2446,0.2501,0.2512,0.2534,0.2544,0.2561,0.2598,0.2751,0.2615,0.2617,0.2764,0.2986,0.2972,0.2997,0.2736,0.2738,0.274,0.311,0,0.2199,0.223,0.2255,0.2287,0.2305,0.2337,0.2371,0.2408,0.245,0.2517,0.2538,0.261,0.2551,0.2604,0.2623,0.2735,0.28,0.2659,0.291,0.2919,0.2892,0.3016,0.2938,0.3253,0.3133,0.3137,0.314,0,0.2217,0.2231,0.2255,0.2296,0.2309,0.2334,0.2392,0.2433,0.2522,0.2571,0.2622,0.2676,0.2771,0.2706,0.2885,0.281,0.2888,0.2947,0.2963,0.2928,0.2943,0.3158,0.33,0.3172,0.3176,0.3173,0.317,0,0.2199,0.2236,0.2248,0.2262,0.2313,0.2328,0.2366,0.2439,0.2504,0.2636,0.2732,0.2812,0.2931,0.2992,0.3111,0.3033,0.3324,0.3244,0.3305,0.3311,0.3276,0.3272,0.33,0.3339,0.3338,0.3337,0.3336,0,0.2209,0.222,0.2237,0.2247,0.2277,0.2319,0.2384,0.2441,0.2568,0.2681,0.2771,0.2895,0.3001,0.3169,0.3212,0.3376,0.3425,0.334,0.3391,0.3301,0.3295,0.32,0.3142,0.3351,0.3348,0.3345,0.3343,0,0.2211,0.2213,0.2236,0.2268,0.2271,0.2304,0.2403,0.2485,0.26,0.2766,0.2839,0.3046,0.3274,0.3391,0.3581,0.3555,0.3592,0.3706,0.3639,0.3669,0.3521,0.347,0.3447,0.3343,0.3849,0.3851,0.3852,0,0.2224,0.2229,0.2248,0.2265,0.2281,0.2327,0.2389,0.2492,0.2592,0.2843,0.2947,0.3223,0.338,0.3698,0.376,0.3918,0.3711,0.389,0.3651,0.3528,0.3512,0.3316,0.3214,0.3703,0.3703,0.3703,0.3703,0,0.2265,0.2265,0.2286,0.2308,0.2351,0.2395,0.2477,0.2541,0.2702,0.2848,0.3064,0.3212,0.3537,0.3664,0.3867,0.3912,0.369,0.3889,0.3768,0.3399,0.3185,0.3106,0.3511,0.3703,0.3703,0.3703,0.3703,0.3703,0.2308,0.2325,0.2348,0.2363,0.2402,0.2434,0.2449,0.256,0.268,0.2851,0.3054,0.3245,0.3507,0.3771,0.3795,0.3777,0.3697,0.3649,0.3624,0.3456,0.3225,0.3654,0.3856,0.3857,0.3858,0.3859,0.3859,0,0.235,0.2359,0.2402,0.2389,0.2405,0.2431,0.2493,0.25,0.2575,0.2792,0.2946,0.3248,0.339,0.3538,0.3653,0.3538,0.3323,0.3431,0.3128,0.3055,0.3482,0.3335,0.3421,0.3421,0.3421,0.3421,0.3421,0.3421,0.2372,0.2402,0.24,0.2379,0.2366,0.2345,0.235,0.2373,0.2467,0.2632,0.2797,0.2995,0.328,0.3455,0.3391,0.3315,0.301,0.2918,0.2839,0.3131,0.3146,0.316,0.3002,0.3017,0.3017,0.2273,0.2268,0.2264]},{"header":{"parameterUnit":"m.s-1","parameterCategory":2,"la1":30.2991,"la2":30.254,"lo1":-89.0895,"lo2":-89.0444,"dy":0.0017,"dx":0.0017,"nx":28,"ny":28,"refTime":"2024-04-22T09:00:00:Z","depth":"0","parameterNumber":3,"parameterNumberName":"V-component_of_CURRENTS"},"data":[0,0,0,0,0,0,0,0,0,0,0,0,0,0,0,0,0,0,0,0,0,0,0,0,0,0,0,0,0,0,0,0,0,0,0,0,0,0,0,0,0,0,0,0,0,0,0,0,0,0,0,0,0,0,0,0,0,0,0.0081,0.008,0,0.0027,0.0027,0.0026,-0.0018,-0.0019,-0.0019,-0.002,-0.013,-0.0132,-0.0135,0,0,0,0,0,0,0,0,0,0,0,0,0,0.0123,0.0122,0.0081,0.008,0.008,0.0027,0.0027,0.0026,-0.0018,-0.0019,-0.0019,-0.002,-0.0129,-0.0132,-0.0135,0,0,0,0,0,0,0,0,0,0,0,0,0,0.009,0.0122,0.0081,0.0052,0.0048,0.0028,0.0027,0.0026,-0.0018,-0.0019,-0.002,-0.002,-0.0128,-0.0131,-0.0135,-0.0145,0,0,-0.0147,-0.0148,0,0,0,0,0,0,0,0,0.0092,0.0089,0.0057,0.0054,0.005,0.0011,0.0001,-0.0034,-0.0018,0.0007,-0.002,-0.0021,-0.0087,-0.0094,-0.0103,-0.015,-0.0155,-0.0147,-0.0149,-0.0151,-0.0152,0,0,0,0,0,0,0,0.0094,0.0091,0.0059,0.0056,0.0052,0.0033,0.0028,-0.0006,-0.0037,0.0005,0.0001,-0.0004,-0.009,-0.0099,-0.0106,-0.0157,-0.0147,-0.015,-0.0153,-0.0154,-0.0236,-0.0236,0,0,0,0,0,0,0.0104,0.0093,0.0061,0.0058,0.007,0.0033,0.0027,0.0024,-0.0036,-0.0045,-0.0003,-0.0006,-0.0092,-0.0101,-0.011,-0.0145,-0.0151,-0.0154,-0.0157,-0.0236,-0.0236,-0.0236,0,0,0,0,0,0,0.0105,0.0101,0.0063,0.0074,0.0068,0.0033,0.003,0.0023,0.0012,-0.0041,-0.0051,-0.0008,-0.0093,-0.0105,-0.014,-0.0149,-0.0156,-0.016,-0.0236,-0.0236,-0.0236,-0.0203,0,0,0,0,0,0,0.0106,0.0102,0.0104,0.0075,0.0068,0.0053,0.003,0.0022,0.001,0.0006,-0.0049,-0.0059,-0.0094,-0.0134,-0.0144,-0.0154,-0.0163,-0.0236,-0.0236,-0.0236,-0.0205,-0.0202,-0.02,0,0,0,0,0,0.0108,0.0113,0.0105,0.0101,0.0071,0.0054,0.0048,0.0021,0.001,0.0008,-0.003,-0.0058,-0.014,-0.0137,-0.0149,-0.016,-0.0236,-0.0236,-0.0236,-0.0206,-0.0203,-0.02,0,0,0,0,0,0,0.0133,0.0108,0.0098,0.0096,0.0078,0.0046,0.0043,0.0026,-0.0004,-0.0008,-0.0058,-0.0071,-0.0106,-0.0133,-0.0128,-0.0182,-0.0193,-0.0195,-0.0166,-0.0163,-0.0161,-0.0136,-0.0166,0,0,0,0,0,0.0141,0.0136,0.0112,0.0109,0.0104,0.0076,0.0066,0.0049,0.0019,0.0006,-0.0032,-0.0073,-0.0113,-0.0137,-0.0171,-0.0201,-0.0196,-0.0214,-0.0212,-0.021,-0.0197,-0.0209,-0.0207,-0.0235,-0.0235,-0.0235,0,0,0.0149,0.0136,0.0133,0.0114,0.0099,0.0094,0.0068,0.0058,0.0049,-0.0002,-0.0025,-0.0066,-0.0117,-0.0151,-0.0169,-0.0177,-0.0193,-0.021,-0.0208,-0.0195,-0.0209,-0.0206,-0.0203,-0.0235,-0.0235,-0.0235,0,0,0.0164,0.0154,0.0156,0.0146,0.0128,0.0111,0.011,0.0082,0.0066,0.0042,-0.0001,-0.0043,-0.0095,-0.0139,-0.0167,-0.0172,-0.0178,-0.0183,-0.0159,-0.0171,-0.0169,-0.0166,-0.0124,-0.0119,-0.0186,-0.0186,-0.0186,0,0.0175,0.0175,0.0154,0.0155,0.0152,0.0121,0.0126,0.0106,0.0068,0.0059,0.0041,-0.0036,-0.009,-0.0135,-0.0143,-0.0168,-0.0151,-0.0167,-0.0167,-0.0165,-0.0164,-0.0121,-0.0115,-0.0184,-0.0184,-0.0184,-0.0185,0,0.0188,0.0192,0.0195,0.0186,0.0179,0.018,0.0155,0.0143,0.0121,0.01,0.0063,-0.0004,-0.0041,-0.008,-0.0119,-0.014,-0.0121,-0.016,-0.0171,-0.0159,-0.0114,-0.0109,-0.0182,-0.0182,-0.0183,-0.0183,0,0,0.0207,0.0204,0.0207,0.0218,0.02,0.02,0.0187,0.0172,0.0193,0.0129,0.0154,0.0038,0.002,-0.0012,-0.0068,-0.0101,-0.0083,-0.0121,-0.0123,-0.0072,-0.0059,-0.0029,-0.002,-0.012,-0.012,-0.012,-0.002,0,0.0226,0.0243,0.0232,0.0254,0.0265,0.0242,0.0247,0.0228,0.0221,0.0243,0.0157,0.0169,0.0043,0.0058,-0.0012,-0.0049,-0.0072,-0.0103,-0.0084,-0.0082,-0.0054,-0.0015,-0.0057,0.0028,-0.0015,-0.0014,-0.0013,0,0.0244,0.0256,0.0281,0.0308,0.0313,0.0327,0.0352,0.0358,0.0361,0.0369,0.0336,0.031,0.0256,0.0172,0.0073,0.0066,0.0008,-0.0039,-0.0037,-0.0017,-0.0044,0.0001,0.004,-0.0195,-0.0005,-0.0006,-0.0006,0,0.0276,0.0296,0.0321,0.0326,0.0345,0.0364,0.0387,0.0399,0.0471,0.0491,0.0588,0.046,0.0523,0.0355,0.0254,0.0175,0.0195,0.0074,0.0044,0.0048,0.0012,0.0012,-0.0171,0.0017,0.0017,0.0016,0.0016,0,0.0307,0.0333,0.0348,0.0367,0.0437,0.0429,0.0539,0.0539,0.0639,0.0795,0.0687,0.0822,0.0581,0.0567,0.0357,0.0262,0.0277,0.0076,0.0072,0.0027,0.0027,-0.018,-0.029,0.002,0.0019,0.0019,0.0018,0,0.0358,0.0347,0.0405,0.0441,0.0459,0.0529,0.0687,0.0823,0.0862,0.1084,0.1131,0.1157,0.1128,0.09,0.0727,0.0496,0.0224,0.03,0.0298,0.0288,-0.0049,-0.0153,-0.0245,-0.0325,0.0231,0.0232,0.0234,0,0.0393,0.0419,0.0484,0.0566,0.0601,0.0716,0.0859,0.0933,0.1117,0.1318,0.1482,0.153,0.1586,0.134,0.0941,0.0608,0.0375,0.0376,0.0166,-0.0045,-0.0166,-0.024,-0.0308,0.0149,0.015,0.015,0.015,0,0.0504,0.0524,0.0587,0.0755,0.0907,0.1074,0.1272,0.1425,0.1586,0.1756,0.1996,0.204,0.1827,0.1485,0.1057,0.0782,0.0202,0.0371,0.0126,-0.0254,-0.032,-0.0404,0.0102,0.0152,0.0152,0.0152,0.0152,0.0151,0.0632,0.072,0.0841,0.1,0.1188,0.1444,0.1594,0.183,0.209,0.2338,0.237,0.2445,0.1921,0.1298,0.0951,0.0236,0.0248,-0.0054,-0.0154,-0.0202,-0.0325,0.0226,0.0275,0.0275,0.0275,0.0276,0.0276,0,0.0837,0.0936,0.1104,0.1314,0.1556,0.1602,0.1904,0.2059,0.2348,0.2561,0.2702,0.2445,0.1821,0.1158,0.0204,-0.0253,-0.044,-0.0491,-0.0675,-0.0717,-0.0261,-0.0319,-0.0366,-0.0366,-0.0366,-0.0366,-0.0366,-0.0365,0.0973,0.1169,0.1242,0.1627,0.1771,0.2068,0.222,0.2413,0.2561,0.2754,0.2756,0.274,0.2131,0.0538,-0.0566,-0.0803,-0.1097,-0.1123,-0.1235,-0.1033,-0.1003,-0.0975,-0.1062,-0.1264,-0.1266,-0.169,-0.1695,-0.1698]}],[{"header":{"parameterUnit":"m.s-1","parameterCategory":2,"la1":30.2991,"la2":30.254,"lo1":-89.0895,"lo2":-89.0444,"dy":0.0017,"dx":0.0017,"nx":28,"ny":28,"refTime":"2024-04-22T09:00:00:Z","depth":"2","parameterNumber":2,"parameterNumberName":"U-component_of_CURRENTS"},"data":[0,0,0,0,0,0,0,0,0,0,0,0,0,0,0,0,0,0,0,0,0,0,0,0,0,0,0,0,0,0,0,0,0,0,0,0,0,0,0,0,0,0,0,0,0,0,0,0,0,0,0,0,0,0,0,0,0,0,0.2036,0.2037,0,0.2047,0.2047,0.2047,0.2047,0.2048,0.2048,0.2048,0.2079,0.208,0.208,0,0,0,0,0,0,0,0,0,0,0,0,0,0.1973,0.1974,0.2036,0.2037,0.2037,0.2047,0.2047,0.2047,0.2047,0.2048,0.2048,0.2048,0.2079,0.208,0.208,0,0,0,0,0,0,0,0,0,0,0,0,0,0.199,0.1974,0.2036,0.2042,0.2043,0.2047,0.2047,0.2047,0.2047,0.2048,0.2048,0.2048,0.2079,0.208,0.208,0.2078,0,0,0.2083,0.2084,0,0,0,0,0,0,0,0,0.1989,0.1991,0.2041,0.2042,0.2043,0.205,0.2036,0.206,0.2047,0.2041,0.2048,0.2048,0.2074,0.2075,0.207,0.208,0.2081,0.2083,0.2084,0.2084,0.2084,0,0,0,0,0,0,0,0.1988,0.1991,0.2036,0.2041,0.2043,0.203,0.2032,0.204,0.2052,0.2042,0.2043,0.2051,0.2074,0.2069,0.2071,0.2081,0.2083,0.2084,0.2085,0.2085,0.2169,0.217,0,0,0,0,0,0,0.1997,0.199,0.2036,0.2037,0.2021,0.2031,0.2034,0.2044,0.2052,0.2054,0.205,0.2051,0.2067,0.207,0.2072,0.2146,0.2084,0.2085,0.2085,0.2167,0.2169,0.2171,0,0,0,0,0,0,0.1996,0.2001,0.2036,0.2017,0.2021,0.2032,0.2043,0.2044,0.2052,0.2059,0.2061,0.206,0.2068,0.2071,0.2096,0.2145,0.2085,0.2086,0.2165,0.2168,0.217,0.2246,0,0,0,0,0,0,0.1994,0.2,0.2014,0.2018,0.2023,0.2055,0.2043,0.2044,0.2058,0.2058,0.2068,0.207,0.2068,0.2095,0.2097,0.2145,0.2087,0.2163,0.2166,0.2169,0.2241,0.2251,0.2259,0,0,0,0,0,0.1991,0.2011,0.2014,0.202,0.204,0.2057,0.2058,0.2063,0.2058,0.2069,0.2075,0.207,0.2118,0.2097,0.2099,0.2148,0.2161,0.2165,0.2169,0.2237,0.2249,0.2258,0,0,0,0,0,0,0.1986,0.2013,0.2017,0.2043,0.2057,0.2059,0.2073,0.207,0.2081,0.2089,0.2082,0.2085,0.213,0.2123,0.21,0.2182,0.2143,0.2147,0.2194,0.2205,0.2213,0.2195,0.2088,0,0,0,0,0,0.1993,0.2019,0.2034,0.2056,0.2066,0.2069,0.2077,0.2085,0.2094,0.2099,0.2102,0.2117,0.2144,0.2161,0.2175,0.2212,0.2232,0.2248,0.2257,0.2265,0.2252,0.232,0.2334,0.2184,0.2184,0.2184,0,0,0.1994,0.2016,0.2028,0.2058,0.2067,0.2085,0.2074,0.21,0.2126,0.2102,0.2135,0.2144,0.2159,0.2207,0.2227,0.221,0.2328,0.2269,0.2276,0.2258,0.2325,0.234,0.2353,0.2186,0.2186,0.2185,0,0,0.2016,0.2033,0.2062,0.2073,0.2104,0.2111,0.2121,0.2134,0.2156,0.2185,0.2186,0.2216,0.2243,0.2268,0.2285,0.2347,0.2369,0.2366,0.2401,0.2468,0.2481,0.2492,0.2582,0.26,0.2375,0.2375,0.2375,0,0.2017,0.2051,0.2072,0.2096,0.2107,0.2123,0.2144,0.2171,0.2192,0.2216,0.2209,0.226,0.2273,0.2337,0.2363,0.2369,0.2415,0.2361,0.248,0.2492,0.2502,0.259,0.2609,0.2379,0.2379,0.2378,0.2378,0,0.2065,0.2077,0.2094,0.2131,0.2149,0.217,0.2206,0.2235,0.2256,0.2277,0.2339,0.2354,0.2384,0.2408,0.2403,0.2491,0.2507,0.2483,0.2453,0.2522,0.2611,0.263,0.2385,0.2383,0.2382,0.2381,0,0,0.2095,0.212,0.2123,0.2126,0.2165,0.218,0.2239,0.2289,0.2338,0.2364,0.2429,0.2464,0.2471,0.2487,0.2501,0.2551,0.2682,0.2551,0.2553,0.2639,0.2863,0.2761,0.2772,0.2687,0.269,0.2692,0.2913,0,0.2121,0.2148,0.2169,0.2187,0.2194,0.2223,0.2276,0.2329,0.2384,0.2455,0.2493,0.2561,0.251,0.2552,0.2588,0.267,0.2728,0.2626,0.2782,0.2787,0.2686,0.2787,0.2566,0.2733,0.2931,0.2934,0.2936,0,0.2165,0.2169,0.2188,0.22,0.2212,0.2235,0.2313,0.2368,0.2477,0.2538,0.2595,0.2633,0.2727,0.2672,0.2814,0.2758,0.2806,0.2848,0.2858,0.2736,0.2717,0.2687,0.2759,0.2968,0.2965,0.2963,0.2961,0,0.2167,0.2179,0.2189,0.2191,0.2224,0.2251,0.2285,0.2383,0.2464,0.2605,0.2686,0.2769,0.2859,0.291,0.2957,0.2926,0.3104,0.3084,0.3032,0.3028,0.2851,0.2824,0.3167,0.3167,0.3166,0.3166,0.3165,0,0.2185,0.2183,0.2183,0.2183,0.2215,0.2246,0.2325,0.2394,0.2529,0.2637,0.2724,0.2824,0.2921,0.3011,0.3029,0.3085,0.3168,0.3055,0.3075,0.2874,0.2848,0.3035,0.3017,0.3174,0.3172,0.317,0.3169,0,0.2194,0.2188,0.2192,0.2209,0.2214,0.2245,0.2338,0.2429,0.2546,0.2699,0.2761,0.2934,0.3066,0.3117,0.325,0.3196,0.325,0.3232,0.2993,0.2977,0.3129,0.3112,0.3265,0.3263,0.3262,0.326,0.3259,0,0.2206,0.2207,0.2208,0.2238,0.2246,0.2288,0.2355,0.2444,0.255,0.2741,0.2835,0.3003,0.3086,0.3233,0.3207,0.3247,0.3262,0.3036,0.2905,0.3134,0.3139,0.3124,0.311,0.2746,0.2741,0.2737,0.2733,0,0.2235,0.2235,0.2247,0.2287,0.2333,0.2374,0.2452,0.2508,0.2638,0.2735,0.2879,0.2948,0.3091,0.3031,0.3051,0.3023,0.3011,0.295,0.3286,0.2718,0.2651,0.2653,0.2656,0.2695,0.2699,0.2702,0.2704,0.2705,0.227,0.2286,0.2308,0.2341,0.2399,0.2436,0.2435,0.25,0.2563,0.2611,0.2764,0.276,0.2833,0.2759,0.2696,0.2656,0.2851,0.2721,0.2732,0.2749,0.2611,0.254,0.2543,0.2545,0.2548,0.255,0.2552,0,0.2291,0.2318,0.2372,0.2377,0.2416,0.2451,0.2498,0.2416,0.238,0.2466,0.2479,0.2288,0.228,0.2354,0.2253,0.2258,0.2216,0.2163,0.2096,0.2137,0.2173,0.2002,0.1775,0.1772,0.177,0.1767,0,0,0.2307,0.2331,0.2333,0.2354,0.2391,0.2357,0.2349,0.2199,0.2173,0.201,0.1991,0.2131,0.2289,0.1986,0.1972,0.1867,0.1977,0.1795,0.2427,0.2391,0.2423,0.2516,0.2303,0,0,0,0,0]},{"header":{"parameterUnit":"m.s-1","parameterCategory":2,"la1":30.2991,"la2":30.254,"lo1":-89.0895,"lo2":-89.0444,"dy":0.0017,"dx":0.0017,"nx":28,"ny":28,"refTime":"2024-04-22T09:00:00:Z","depth":"2","parameterNumber":3,"parameterNumberName":"V-component_of_CURRENTS"},"data":[0,0,0,0,0,0,0,0,0,0,0,0,0,0,0,0,0,0,0,0,0,0,0,0,0,0,0,0,0,0,0,0,0,0,0,0,0,0,0,0,0,0,0,0,0,0,0,0,0,0,0,0,0,0,0,0,0,0,-0.0088,-0.0088,0,-0.0129,-0.013,-0.013,-0.0165,-0.0165,-0.0165,-0.0166,-0.026,-0.0262,-0.0264,0,0,0,0,0,0,0,0,0,0,0,0,0,-0.0067,-0.0067,-0.0088,-0.0088,-0.0089,-0.0129,-0.013,-0.013,-0.0165,-0.0165,-0.0166,-0.0166,-0.0259,-0.0262,-0.0264,0,0,0,0,0,0,0,0,0,0,0,0,0,-0.0089,-0.0067,-0.0088,-0.0111,-0.0114,-0.0129,-0.013,-0.013,-0.0164,-0.0165,-0.0166,-0.0166,-0.0258,-0.0261,-0.0264,-0.0272,0,0,-0.0274,-0.0276,0,0,0,0,0,0,0,0,-0.0087,-0.0089,-0.0107,-0.011,-0.0112,-0.0143,-0.0157,-0.018,-0.0164,-0.0145,-0.0166,-0.0167,-0.0225,-0.0231,-0.0236,-0.0276,-0.028,-0.0274,-0.0276,-0.0278,-0.0279,0,0,0,0,0,0,0,-0.0086,-0.0088,-0.0104,-0.0108,-0.0111,-0.013,-0.0133,-0.0162,-0.0182,-0.0146,-0.0149,-0.0154,-0.0227,-0.0233,-0.0239,-0.0282,-0.0274,-0.0277,-0.0279,-0.028,-0.0348,-0.0348,0,0,0,0,0,0,-0.0079,-0.0086,-0.0102,-0.0105,-0.0102,-0.013,-0.0133,-0.0132,-0.018,-0.0188,-0.0154,-0.0156,-0.0227,-0.0235,-0.0242,-0.0264,-0.0278,-0.0281,-0.0283,-0.0348,-0.0348,-0.0348,0,0,0,0,0,0,-0.0079,-0.008,-0.0101,-0.0098,-0.0102,-0.0129,-0.0128,-0.0133,-0.0141,-0.0185,-0.0194,-0.0158,-0.0228,-0.0238,-0.0267,-0.0268,-0.0282,-0.0285,-0.0348,-0.0348,-0.0348,-0.0302,0,0,0,0,0,0,-0.0078,-0.0079,-0.0076,-0.0097,-0.0101,-0.0104,-0.0127,-0.0133,-0.0144,-0.0147,-0.0192,-0.0201,-0.0229,-0.0262,-0.027,-0.0273,-0.0287,-0.0348,-0.0348,-0.0348,-0.0303,-0.03,-0.0297,0,0,0,0,0,-0.0077,-0.0065,-0.0076,-0.0078,-0.0096,-0.0104,-0.0108,-0.013,-0.0143,-0.0141,-0.0174,-0.0199,-0.0267,-0.0264,-0.0274,-0.0277,-0.0348,-0.0348,-0.0348,-0.0305,-0.0301,-0.0297,0,0,0,0,0,0,-0.0055,-0.0068,-0.008,-0.0074,-0.0087,-0.011,-0.011,-0.0126,-0.0149,-0.0154,-0.0198,-0.0209,-0.0234,-0.0261,-0.0257,-0.0296,-0.0312,-0.0313,-0.0276,-0.0272,-0.0269,-0.0244,-0.029,0,0,0,0,0,-0.0048,-0.0045,-0.0062,-0.0059,-0.0062,-0.0086,-0.0093,-0.0106,-0.0129,-0.014,-0.0172,-0.0208,-0.0239,-0.0259,-0.0287,-0.0309,-0.0323,-0.0318,-0.0314,-0.0311,-0.0298,-0.0324,-0.0322,-0.0347,-0.0347,-0.0347,0,0,-0.0041,-0.0047,-0.0047,-0.0055,-0.0066,-0.006,-0.0091,-0.0094,-0.0096,-0.0147,-0.016,-0.0196,-0.0242,-0.0265,-0.0279,-0.0289,-0.0311,-0.0311,-0.0308,-0.0296,-0.0323,-0.0321,-0.0319,-0.0347,-0.0347,-0.0347,0,0,-0.002,-0.0026,-0.0015,-0.0017,-0.0028,-0.0041,-0.004,-0.006,-0.0076,-0.0092,-0.0132,-0.0167,-0.0209,-0.0245,-0.0269,-0.0266,-0.0291,-0.0276,-0.0244,-0.027,-0.0268,-0.0266,-0.0274,-0.0274,-0.0277,-0.0277,-0.0277,0,-0.0011,0.0004,-0.0014,0.0001,0.0003,-0.0029,-0.0013,-0.003,-0.006,-0.007,-0.0089,-0.0152,-0.02,-0.0232,-0.0235,-0.0259,-0.0267,-0.0255,-0.0265,-0.0264,-0.0263,-0.0272,-0.0272,-0.0275,-0.0275,-0.0275,-0.0276,0,0.0021,0.0034,0.0044,0.0051,0.0051,0.0061,0.0039,0.0029,0.0005,-0.0014,-0.0046,-0.0106,-0.0142,-0.017,-0.0204,-0.0223,-0.0228,-0.0255,-0.0271,-0.0257,-0.0268,-0.0269,-0.0272,-0.0272,-0.0273,-0.0274,0,0,0.004,0.0061,0.0066,0.0082,0.0082,0.0087,0.0083,0.0073,0.0083,0.0034,0.0043,-0.004,-0.0068,-0.0096,-0.0149,-0.018,-0.0194,-0.0209,-0.0211,-0.021,-0.023,-0.0292,-0.0299,-0.0219,-0.0219,-0.0219,-0.0237,0,0.007,0.011,0.0111,0.0149,0.0169,0.0149,0.0155,0.0139,0.0124,0.0126,0.0052,0.0046,-0.0042,-0.0045,-0.0099,-0.0161,-0.0194,-0.0185,-0.0249,-0.0251,-0.0303,-0.0302,-0.0258,-0.0276,-0.0238,-0.0238,-0.0239,0,0.0105,0.0128,0.017,0.0205,0.0213,0.0232,0.0247,0.0251,0.0235,0.0229,0.0196,0.0156,0.0096,0.0035,-0.0081,-0.0067,-0.0142,-0.0197,-0.02,-0.0272,-0.0315,-0.0287,-0.028,-0.024,-0.024,-0.024,-0.024,0,0.0129,0.0173,0.0208,0.022,0.0249,0.0266,0.0284,0.0283,0.0321,0.0314,0.0344,0.0257,0.0244,0.0125,-0.0036,-0.0037,-0.0156,-0.0172,-0.0299,-0.0303,-0.0286,-0.029,-0.0244,-0.0244,-0.0244,-0.0244,-0.0244,0,0.0164,0.0198,0.0228,0.0251,0.0308,0.0313,0.0383,0.0383,0.0435,0.0494,0.0409,0.0418,0.0269,0.0166,0.0014,-0.0161,-0.0129,-0.0286,-0.0316,-0.027,-0.0272,-0.026,-0.0261,-0.0244,-0.0244,-0.0244,-0.0244,0,0.0195,0.0207,0.026,0.0302,0.0323,0.037,0.0477,0.0551,0.0559,0.064,0.0654,0.0576,0.0438,0.0253,0.0075,-0.0082,-0.0249,-0.0323,-0.0258,-0.0281,-0.0375,-0.0374,-0.0417,-0.0419,-0.0421,-0.0423,-0.0424,0,0.0219,0.0244,0.0305,0.0369,0.0401,0.0483,0.0565,0.0612,0.0709,0.0713,0.077,0.0664,0.0582,0.0275,0.0012,-0.0239,-0.0286,-0.0379,-0.0389,-0.037,-0.0395,-0.039,-0.0387,-0.0334,-0.0335,-0.0335,-0.0336,0,0.0268,0.0283,0.0329,0.0452,0.0548,0.0657,0.0774,0.0848,0.0902,0.093,0.0926,0.0855,0.0593,0.0336,-0.002,-0.0201,-0.0336,-0.0398,-0.0388,-0.0317,-0.03,-0.0322,-0.0319,-0.034,-0.0339,-0.0339,-0.0339,-0.0339,0.0306,0.036,0.0427,0.0531,0.0668,0.0798,0.0824,0.0949,0.1017,0.1037,0.1013,0.0916,0.0673,0.0229,-0.0076,-0.037,-0.0358,-0.0456,-0.0451,-0.0445,-0.0453,-0.0443,-0.0508,-0.0509,-0.0509,-0.051,-0.051,0,0.0335,0.0405,0.0519,0.0603,0.0706,0.0805,0.0942,0.0957,0.0959,0.1098,0.1065,0.0832,0.0555,0.0281,-0.0139,-0.0417,-0.0411,-0.051,-0.0425,-0.0419,-0.0415,-0.0418,-0.0465,-0.0466,-0.0467,-0.0467,0,0,0.036,0.0417,0.0451,0.0563,0.0668,0.0758,0.0802,0.0867,0.0969,0.1024,0.1042,0.1013,0.0697,0.0393,0.0025,-0.0204,-0.0248,-0.0258,-0.0265,-0.0116,-0.0107,-0.036,-0.0357,0,0,0,0,0]}],[{"header":{"parameterUnit":"m.s-1","parameterCategory":2,"la1":30.2991,"la2":30.254,"lo1":-89.0895,"lo2":-89.0444,"dy":0.0017,"dx":0.0017,"nx":28,"ny":28,"refTime":"2024-04-22T09:00:00:Z","depth":"4","parameterNumber":2,"parameterNumberName":"U-component_of_CURRENTS"},"data":[0,0,0,0,0,0,0,0,0,0,0,0,0,0,0,0,0,0,0,0,0,0,0,0,0,0,0,0,0,0,0,0,0,0,0,0,0,0,0,0,0,0,0,0,0,0,0,0,0,0,0,0,0,0,0,0,0,0,0.1192,0.1193,0,0.13,0.1301,0.1303,0.139,0.1391,0.1392,0.1393,0.149,0.1492,0.1494,0,0,0,0,0,0,0,0,0,0,0,0,0,0.1094,0.1095,0.1192,0.1193,0.1195,0.13,0.1301,0.1303,0.139,0.1391,0.1392,0.1393,0.149,0.1492,0.1494,0,0,0,0,0,0,0,0,0,0,0,0,0,0.1163,0.1095,0.1192,0.125,0.1257,0.13,0.1301,0.1303,0.139,0.1391,0.1392,0.1394,0.1489,0.1491,0.1494,0.1486,0,0,0.1502,0.1504,0,0,0,0,0,0,0,0,0.1159,0.1167,0.124,0.1246,0.1253,0.1332,0.1303,0.1364,0.139,0.134,0.1393,0.1394,0.1435,0.1442,0.1461,0.149,0.1494,0.1503,0.1504,0.1506,0.1506,0,0,0,0,0,0,0,0.1154,0.1163,0.1236,0.1242,0.125,0.1282,0.1293,0.1315,0.1379,0.1344,0.1351,0.1361,0.1439,0.1458,0.1464,0.1496,0.1503,0.1505,0.1507,0.1508,0.1604,0.1605,0,0,0,0,0,0,0.1136,0.1158,0.1232,0.1239,0.1208,0.1283,0.1295,0.1306,0.138,0.1392,0.136,0.1365,0.1453,0.146,0.1467,0.1545,0.1505,0.1508,0.151,0.1603,0.1604,0.1605,0,0,0,0,0,0,0.1134,0.1142,0.1228,0.12,0.1213,0.1283,0.1295,0.1308,0.1357,0.1392,0.1404,0.1399,0.1454,0.1464,0.152,0.1546,0.1509,0.1512,0.1602,0.1604,0.1605,0.1646,0,0,0,0,0,0,0.1131,0.114,0.1152,0.1199,0.1214,0.1271,0.1294,0.1309,0.1359,0.1367,0.1428,0.1437,0.1456,0.1516,0.1523,0.1549,0.1514,0.1601,0.1603,0.1604,0.1644,0.1649,0.1653,0,0,0,0,0,0.1127,0.1131,0.1152,0.1162,0.1225,0.1272,0.1284,0.1337,0.136,0.1385,0.1432,0.1437,0.1531,0.1519,0.1527,0.1555,0.16,0.1602,0.1604,0.1642,0.1648,0.1653,0,0,0,0,0,0,0.1099,0.1142,0.1166,0.1185,0.1235,0.1287,0.1315,0.1348,0.1406,0.142,0.1454,0.1466,0.1524,0.153,0.1516,0.1586,0.1564,0.1568,0.1589,0.1596,0.16,0.159,0.1516,0,0,0,0,0,0.1095,0.1111,0.1162,0.1183,0.1207,0.1265,0.1295,0.1333,0.1383,0.1411,0.1455,0.1496,0.1532,0.1558,0.1588,0.1628,0.1642,0.1648,0.1652,0.1656,0.1653,0.1701,0.171,0.1612,0.1612,0.1612,0,0,0.1087,0.1116,0.1125,0.1179,0.1222,0.1262,0.1288,0.1339,0.1381,0.1409,0.1484,0.1516,0.1546,0.1597,0.1622,0.1611,0.1695,0.1659,0.1663,0.1657,0.1704,0.1714,0.1722,0.1614,0.1613,0.1613,0,0,0.1075,0.1112,0.1122,0.117,0.1235,0.1271,0.129,0.136,0.1403,0.1467,0.1499,0.155,0.1608,0.1639,0.1657,0.1702,0.1718,0.1713,0.1734,0.1782,0.179,0.1798,0.1842,0.1853,0.1717,0.1717,0.1717,0,0.1072,0.1099,0.1135,0.1172,0.1217,0.1277,0.1316,0.1362,0.1445,0.1479,0.1496,0.1601,0.1625,0.1687,0.1704,0.1713,0.1744,0.1712,0.1789,0.1796,0.1803,0.1847,0.1859,0.1719,0.1719,0.1718,0.1718,0,0.1063,0.1113,0.113,0.1194,0.1239,0.1291,0.1355,0.1407,0.1462,0.1509,0.1595,0.1643,0.1706,0.1719,0.1726,0.1791,0.1798,0.179,0.1775,0.1816,0.1859,0.1871,0.1722,0.1721,0.1721,0.172,0,0,0.0988,0.1103,0.1115,0.1171,0.1267,0.1305,0.1368,0.1443,0.15,0.1573,0.1651,0.1707,0.1746,0.1768,0.1797,0.1832,0.1908,0.1834,0.1835,0.1879,0.2024,0.1892,0.1891,0.1923,0.1925,0.1926,0.2039,0,0.0983,0.1066,0.1116,0.1206,0.1259,0.1341,0.1398,0.1472,0.1546,0.1635,0.169,0.1778,0.1763,0.182,0.1848,0.1904,0.1939,0.1878,0.1976,0.1978,0.1856,0.19,0.1932,0.2048,0.2051,0.2053,0.2054,0,0.0929,0.1021,0.1106,0.1243,0.1271,0.1329,0.1446,0.1513,0.1625,0.1686,0.1772,0.1833,0.1916,0.1897,0.1997,0.1967,0.1992,0.2018,0.2023,0.1888,0.1866,0.1995,0.2075,0.2073,0.2072,0.207,0.2069,0,0.0836,0.099,0.1069,0.1122,0.1281,0.1336,0.1419,0.153,0.1604,0.1745,0.1818,0.1913,0.1995,0.204,0.2082,0.2064,0.2178,0.2162,0.2065,0.2057,0.2126,0.2116,0.2218,0.2218,0.2217,0.2217,0.2217,0,0.0779,0.0844,0.1052,0.1099,0.1218,0.1324,0.1431,0.1522,0.1661,0.1756,0.1857,0.1942,0.2035,0.2107,0.2124,0.2125,0.2217,0.2072,0.2075,0.2142,0.2133,0.2135,0.2124,0.2221,0.222,0.222,0.2219,0,0.064,0.0768,0.0882,0.1095,0.117,0.1254,0.1452,0.1527,0.1665,0.1799,0.1856,0.1998,0.2089,0.2151,0.224,0.2174,0.2196,0.2168,0.2248,0.2254,0.2039,0.2029,0.2087,0.2083,0.208,0.2077,0.2075,0,0.0587,0.0627,0.0869,0.0971,0.1081,0.1238,0.1338,0.1509,0.1588,0.1815,0.1862,0.2015,0.2088,0.2099,0.2169,0.2196,0.2159,0.2157,0.2071,0.2027,0.2025,0.202,0.2015,0.207,0.2069,0.2068,0.2067,0,0.0503,0.0575,0.0686,0.0887,0.103,0.1181,0.1339,0.1388,0.158,0.1724,0.1827,0.1895,0.1986,0.2029,0.2053,0.2066,0.2152,0.2123,0.2129,0.2048,0.2007,0.2007,0.2006,0.2056,0.2057,0.2058,0.2059,0,0.0454,0.0491,0.0631,0.08,0.097,0.1091,0.1191,0.1312,0.141,0.1648,0.1683,0.184,0.1971,0.1965,0.1997,0.1989,0.196,0.1886,0.1904,0.1917,0.1804,0.1723,0.1691,0,0,0,0,0,0.0425,0.0436,0.0557,0.0727,0.088,0.0985,0.1178,0.1272,0.1453,0.1482,0.1578,0.1659,0.1736,0.1808,0.1766,0.1922,0.1959,0.1865,0.188,0.1994,0.2007,0.1886,0,0,0,0,0,0,0.0396,0.0469,0.0501,0.0623,0.0724,0.0877,0.0998,0.1138,0.1153,0.1345,0.1381,0.1536,0.1613,0.1721,0.1719,0.1743,0.1716,0.1963,0.1958,0.1987,0.1998,0.2009,0.1889,0,0,0,0,0]},{"header":{"parameterUnit":"m.s-1","parameterCategory":2,"la1":30.2991,"la2":30.254,"lo1":-89.0895,"lo2":-89.0444,"dy":0.0017,"dx":0.0017,"nx":28,"ny":28,"refTime":"2024-04-22T09:00:00:Z","depth":"4","parameterNumber":3,"parameterNumberName":"V-component_of_CURRENTS"},"data":[0,0,0,0,0,0,0,0,0,0,0,0,0,0,0,0,0,0,0,0,0,0,0,0,0,0,0,0,0,0,0,0,0,0,0,0,0,0,0,0,0,0,0,0,0,0,0,0,0,0,0,0,0,0,0,0,0,0,-0.0033,-0.0034,0,-0.0068,-0.0068,-0.0069,-0.0107,-0.0107,-0.0108,-0.0108,-0.019,-0.0192,-0.0193,0,0,0,0,0,0,0,0,0,0,0,0,0,-0.0038,-0.0037,-0.0033,-0.0034,-0.0034,-0.0068,-0.0068,-0.0069,-0.0107,-0.0107,-0.0108,-0.0108,-0.0189,-0.0191,-0.0193,0,0,0,0,0,0,0,0,0,0,0,0,0,-0.0051,-0.0037,-0.0033,-0.0056,-0.0058,-0.0068,-0.0068,-0.0069,-0.0107,-0.0107,-0.0108,-0.0109,-0.0189,-0.0191,-0.0194,-0.0197,0,0,-0.0202,-0.0203,0,0,0,0,0,0,0,0,-0.0051,-0.0051,-0.0052,-0.0054,-0.0057,-0.0083,-0.01,-0.0114,-0.0106,-0.009,-0.0108,-0.0109,-0.0157,-0.0162,-0.0168,-0.0201,-0.0204,-0.0202,-0.0204,-0.0205,-0.0206,0,0,0,0,0,0,0,-0.005,-0.005,-0.0048,-0.0053,-0.0055,-0.0077,-0.008,-0.0103,-0.0121,-0.0091,-0.0094,-0.0095,-0.0159,-0.0166,-0.0171,-0.0205,-0.0202,-0.0204,-0.0206,-0.0207,-0.0243,-0.0243,0,0,0,0,0,0,-0.004,-0.0049,-0.0047,-0.0049,-0.0054,-0.0076,-0.0079,-0.0075,-0.012,-0.0127,-0.0095,-0.0097,-0.0161,-0.0168,-0.0174,-0.017,-0.0205,-0.0207,-0.0209,-0.0244,-0.0243,-0.0242,0,0,0,0,0,0,-0.004,-0.0039,-0.0046,-0.005,-0.0052,-0.0075,-0.007,-0.0075,-0.0085,-0.0122,-0.013,-0.01,-0.0162,-0.017,-0.0194,-0.0174,-0.0209,-0.0211,-0.0244,-0.0244,-0.0243,-0.0168,0,0,0,0,0,0,-0.004,-0.0039,-0.0036,-0.0048,-0.0051,-0.0044,-0.007,-0.0075,-0.0085,-0.0088,-0.0129,-0.0137,-0.0163,-0.019,-0.0197,-0.0178,-0.0213,-0.0245,-0.0244,-0.0243,-0.0172,-0.0165,-0.0159,0,0,0,0,0,-0.004,-0.0023,-0.0035,-0.0035,-0.0044,-0.0043,-0.0047,-0.0067,-0.0084,-0.0081,-0.0113,-0.0136,-0.0187,-0.0192,-0.02,-0.0181,-0.0246,-0.0244,-0.0243,-0.0174,-0.0166,-0.0159,0,0,0,0,0,0,-0.0026,-0.0026,-0.0039,-0.0025,-0.0034,-0.0049,-0.0048,-0.0064,-0.0087,-0.0093,-0.0134,-0.0143,-0.0154,-0.0181,-0.0185,-0.0188,-0.0218,-0.0218,-0.0163,-0.0156,-0.015,-0.0129,-0.0215,0,0,0,0,0,-0.002,-0.0009,-0.0018,-0.001,-0.001,-0.0031,-0.0036,-0.0047,-0.0066,-0.0077,-0.0106,-0.0135,-0.0153,-0.0166,-0.0187,-0.0193,-0.0233,-0.0185,-0.0179,-0.0174,-0.0162,-0.02,-0.0196,-0.0238,-0.0238,-0.0238,0,0,-0.0015,-0.0013,-0.0009,-0.0007,-0.0016,-0.0001,-0.0035,-0.0034,-0.0025,-0.0083,-0.0085,-0.0117,-0.0151,-0.0154,-0.0161,-0.0175,-0.0188,-0.0172,-0.0167,-0.0158,-0.0198,-0.0194,-0.0191,-0.0237,-0.0237,-0.0237,0,0,0.0016,0.0006,0.003,0.003,0.0027,0.0017,0.002,0.0006,-0.0003,-0.0011,-0.0046,-0.0064,-0.0099,-0.0111,-0.0124,-0.0098,-0.0154,-0.0107,-0.0058,-0.0095,-0.0091,-0.0089,-0.0153,-0.0157,-0.0103,-0.0102,-0.0102,0,0.002,0.0049,0.0035,0.0061,0.0064,0.0031,0.0056,0.0048,0.0026,0.0022,-0.0003,-0.0044,-0.0072,-0.0071,-0.0059,-0.0081,-0.0126,-0.0082,-0.0086,-0.0084,-0.0083,-0.015,-0.0155,-0.0099,-0.0099,-0.01,-0.01,0,0.0079,0.0092,0.0106,0.0127,0.013,0.0143,0.0134,0.0132,0.0109,0.0095,0.0082,0.0039,0.0012,0.0007,-0.0017,-0.0015,-0.0059,-0.0075,-0.0103,-0.0074,-0.0147,-0.0154,-0.0093,-0.0095,-0.0096,-0.0097,0,0,0.0107,0.0141,0.0144,0.0155,0.0164,0.0171,0.0192,0.0197,0.0199,0.0175,0.0169,0.0152,0.0114,0.0098,0.0061,0.004,0.0006,-0.0007,-0.0011,-0.0067,-0.0102,-0.0103,-0.0112,-0.0015,-0.0015,-0.0015,-0.0164,0,0.015,0.0206,0.0215,0.0251,0.0271,0.0256,0.0276,0.0274,0.0251,0.0234,0.0198,0.0173,0.0153,0.0127,0.0108,0.0023,-0.0006,0.0046,-0.0124,-0.0129,-0.0129,-0.0116,-0.0016,-0.0169,-0.0171,-0.0172,-0.0173,0,0.0212,0.023,0.0281,0.0302,0.031,0.0329,0.0335,0.0348,0.0327,0.0306,0.0281,0.0231,0.0194,0.0165,0.0056,0.0084,0.0007,-0.0054,-0.0062,-0.0088,-0.0141,-0.02,-0.0186,-0.0185,-0.0184,-0.0183,-0.0182,0,0.0237,0.028,0.0315,0.0323,0.0344,0.0361,0.0373,0.0369,0.0371,0.0339,0.0316,0.0266,0.0206,0.0132,0.0005,0.0023,-0.0136,-0.0135,-0.0207,-0.0211,-0.0201,-0.0202,-0.02,-0.02,-0.0199,-0.0199,-0.0198,0,0.0281,0.0303,0.0326,0.0339,0.0363,0.0381,0.0405,0.0403,0.0399,0.0394,0.0345,0.0311,0.0195,0.0087,-0.0002,-0.0138,-0.015,-0.0196,-0.0238,-0.017,-0.0166,-0.0208,-0.0207,-0.0205,-0.0203,-0.0202,-0.0201,0,0.0291,0.0319,0.0339,0.0363,0.0374,0.0382,0.0419,0.0424,0.0428,0.0411,0.0398,0.0315,0.019,0.0059,-0.0102,-0.0165,-0.0283,-0.0329,-0.0277,-0.0316,-0.0334,-0.0327,-0.041,-0.0411,-0.0412,-0.0412,-0.0413,0,0.0297,0.0315,0.0336,0.0329,0.0333,0.0363,0.0378,0.0421,0.0426,0.0416,0.0393,0.0284,0.0216,-0.0015,-0.014,-0.0327,-0.0336,-0.0418,-0.0324,-0.0317,-0.035,-0.0342,-0.0335,-0.0414,-0.0415,-0.0415,-0.0415,0,0.0273,0.0283,0.0287,0.0281,0.029,0.0317,0.035,0.0373,0.0416,0.0425,0.0394,0.03,0.0149,-0.0002,-0.0172,-0.029,-0.0368,-0.0427,-0.0425,-0.0336,-0.0323,-0.0354,-0.0346,-0.0418,-0.0418,-0.0417,-0.0417,0,0.0231,0.0218,0.0221,0.0224,0.0226,0.025,0.0295,0.0325,0.0362,0.0392,0.0378,0.0264,0.0201,0.0013,-0.0132,-0.0262,-0.0262,-0.0286,-0.029,-0.0289,-0.0192,-0.0154,-0.0228,0,0,0,0,0,0.0181,0.0177,0.0162,0.0172,0.0178,0.021,0.0252,0.0303,0.0379,0.0365,0.0391,0.0277,0.0105,0.0025,-0.01,-0.0165,-0.0318,-0.0318,-0.0356,-0.0434,-0.0431,-0.0335,0,0,0,0,0,0,0.0138,0.0127,0.0145,0.0133,0.0152,0.0178,0.0223,0.0278,0.0292,0.0348,0.0258,0.0264,0.0082,0.019,-0.0091,-0.0131,-0.017,-0.0387,-0.0389,-0.0436,-0.0433,-0.043,-0.033,0,0,0,0,0]}]]